Date String (YYYY-MM-DD hh:mm:ss) UTC,Instrument flags,Ambient pressure (hPa),Sample flow (lpm),Bypass flow (lpm),Sample temperature (°C),Ambient temperature (°C),ASC tube jacket temperature (°C),LED temperature (°C),Box temperature (°C),Sample RH (%),Span deviation,Mass concentration (μg/m³),Mass concentration (μg/m³),Mass concentration (μg/m³)
DateTimeUTC,F1_M11,P_M11,Q1_M11,Q2_M11,T1_M11,T2_M11,T3_M11,T4_M11,T5_M11,U1_M11,ZSPAN_M11,X0_M11,X2_M11,X1_M11
2022-06-28 12:00:00,,0832.3,5.01,0.00,30.5,29.3,00.0,39.3,32.3,15.1,0000.0,0005.43,0003.29,0002.92
2022-06-28 12:01:00,,0832.3,4.98,0.00,30.5,29.4,00.0,39.3,32.3,15.7,0000.0,0005.26,0003.30,0002.92
2022-06-28 12:02:00,,0832.3,5.00,0.00,30.5,29.4,00.0,39.3,32.3,15.7,0000.0,0005.24,0003.31,0002.92
2022-06-28 12:03:00,,0832.4,5.01,0.00,30.5,29.4,00.0,39.3,32.3,15.9,0000.0,0005.27,0003.31,0002.95
2022-06-28 12:04:00,,0832.4,4.99,0.00,30.5,29.4,00.0,39.3,32.3,15.7,0000.0,0005.24,0003.31,0002.97
2022-06-28 12:05:00,,0832.4,5.00,0.00,30.5,29.4,00.0,39.3,32.3,15.9,0000.0,0005.84,0003.33,0002.98
2022-06-28 12:06:00,,0832.4,5.00,0.00,30.5,29.4,00.0,39.3,32.3,15.7,0000.0,0006.38,0003.35,0002.98
2022-06-28 12:07:00,,0832.3,5.01,0.00,30.5,29.4,00.0,39.3,32.3,15.7,0000.0,0006.40,0003.36,0002.98
2022-06-28 12:08:00,,0832.3,5.00,0.00,30.5,29.4,00.0,39.3,32.3,15.8,0000.0,0006.58,0003.39,0003.01
2022-06-28 12:09:00,,0832.3,4.98,0.00,30.5,29.4,00.0,39.3,32.3,15.6,0000.0,0006.70,0003.41,0003.03
2022-06-28 12:10:00,,0832.3,5.00,0.00,30.5,29.4,00.0,39.3,32.3,15.6,0000.0,0006.99,0003.43,0003.03
2022-06-28 12:11:00,,0832.3,5.00,0.00,30.5,29.4,00.0,39.3,32.3,15.6,0000.0,0007.56,0003.47,0003.03
2022-06-28 12:12:00,,0832.3,4.98,0.00,30.5,29.4,00.0,39.3,32.3,15.7,0000.0,0008.06,0003.48,0003.04
2022-06-28 12:13:00,,0832.3,5.01,0.00,30.5,29.4,00.0,39.3,32.3,15.7,0000.0,0008.07,0003.48,0003.05
2022-06-28 12:14:00,,0832.3,5.00,0.00,30.5,29.4,00.0,39.3,32.3,15.8,0000.0,0007.95,0003.46,0003.05
2022-06-28 12:15:00,,0832.3,5.00,0.00,30.5,29.4,00.0,39.3,32.3,16.0,0000.0,0008.02,0003.49,0003.04
2022-06-28 12:16:00,,0832.3,5.01,0.00,30.5,29.4,00.0,39.3,32.3,16.2,0000.0,0007.99,0003.51,0003.03
2022-06-28 12:17:00,,0832.3,5.00,0.00,30.5,29.4,00.0,39.4,32.3,16.2,0000.0,0007.55,0003.53,0003.03
2022-06-28 12:18:00,,0832.3,4.99,0.00,30.5,29.5,00.0,39.4,32.3,16.2,0000.0,0007.69,0003.57,0003.03
2022-06-28 12:19:00,,0832.4,5.00,0.00,30.5,29.5,00.0,39.4,32.3,16.3,0000.0,0007.65,0003.56,0003.03
2022-06-28 12:20:00,,0832.4,5.01,0.00,30.5,29.5,00.0,39.4,32.3,16.2,0000.0,0007.63,0003.55,0003.01
2022-06-28 12:21:00,,0832.3,4.99,0.00,30.5,29.5,00.0,39.4,32.3,16.1,0000.0,0007.62,0003.56,0003.00
2022-06-28 12:22:00,,0832.4,5.01,0.00,30.5,29.5,00.0,39.4,32.3,16.2,0000.0,0007.67,0003.54,0002.99
2022-06-28 12:23:00,,0832.3,5.01,0.00,30.5,29.5,00.0,39.4,32.3,16.3,0000.0,0007.44,0003.51,0002.98
2022-06-28 12:24:00,,0832.3,5.00,0.00,30.6,29.5,00.0,39.4,32.3,16.3,0000.0,0007.32,0003.49,0002.95
2022-06-28 12:25:00,,0832.2,5.00,0.00,30.6,29.5,00.0,39.4,32.3,16.2,0000.0,0007.39,0003.50,0002.94
2022-06-28 12:26:00,,0832.3,5.00,0.00,30.6,29.5,00.0,39.4,32.3,16.2,0000.0,0007.36,0003.49,0002.93
2022-06-28 12:27:00,,0832.3,4.99,0.00,30.6,29.5,00.0,39.4,32.4,16.2,0000.0,0007.23,0003.44,0002.91
2022-06-28 12:28:00,,0832.3,5.00,0.00,30.6,29.5,00.0,39.4,32.4,16.2,0000.0,0007.13,0003.41,0002.88
2022-06-28 12:29:00,,0832.3,5.01,0.00,30.6,29.5,00.0,39.4,32.4,16.2,0000.0,0006.81,0003.37,0002.87
2022-06-28 12:30:00,,0832.3,4.99,0.00,30.6,29.5,00.0,39.4,32.4,16.3,0000.0,0006.70,0003.36,0002.85
2022-06-28 12:31:00,,0832.3,5.01,0.00,30.6,29.5,00.0,39.4,32.4,16.2,0000.0,0006.74,0003.37,0002.84
2022-06-28 12:32:00,,0832.3,5.00,0.00,30.6,29.1,00.0,39.4,32.3,16.3,0000.0,0006.59,0003.34,0002.81
2022-06-28 12:33:00,,0832.3,5.00,0.00,30.5,28.1,00.0,39.3,32.0,16.6,0000.0,0007.18,0003.33,0002.80
2022-06-28 12:34:00,,0832.3,5.00,0.00,30.4,27.8,00.0,39.2,31.9,17.0,0000.0,0006.52,0003.34,0002.80
2022-06-28 12:35:00,,0832.3,5.00,0.00,30.3,27.7,00.0,39.2,31.8,17.2,0000.0,0006.95,0003.37,0002.79
2022-06-28 12:36:00,,0832.3,5.00,0.00,30.2,27.8,00.0,39.2,31.7,17.2,0000.0,0007.45,0003.35,0002.78
2022-06-28 12:37:00,,0832.4,5.00,0.00,30.2,27.9,00.0,39.1,31.7,16.9,0000.0,0007.69,0003.34,0002.77
2022-06-28 12:38:00,,0832.3,5.01,0.00,30.1,28.0,00.0,39.1,31.8,17.0,0000.0,0007.97,0003.32,0002.77
2022-06-28 12:39:00,,0832.4,5.02,0.00,30.1,28.1,00.0,39.1,31.8,17.2,0000.0,0008.57,0003.29,0002.77
2022-06-28 12:40:00,,0832.3,5.01,0.00,30.1,28.3,00.0,39.1,31.8,17.6,0000.0,0008.52,0003.28,0002.77
2022-06-28 12:41:00,,0832.3,4.99,0.00,30.1,28.4,00.0,39.0,31.8,17.6,0000.0,0008.48,0003.25,0002.77
2022-06-28 12:42:00,,0832.3,5.00,0.00,30.1,28.5,00.0,39.0,31.8,17.9,0000.0,0008.52,0003.23,0002.78
2022-06-28 12:43:00,,0832.3,5.01,0.00,30.1,28.6,00.0,39.0,31.8,18.2,0000.0,0008.50,0003.25,0002.79
2022-06-28 12:44:00,,0832.3,5.01,0.00,30.1,28.6,00.0,39.0,31.8,17.6,0000.0,0008.03,0003.28,0002.79
2022-06-28 12:45:00,,0832.4,5.00,0.00,30.1,28.7,00.0,39.0,31.8,17.6,0000.0,0007.95,0003.26,0002.78
2022-06-28 12:46:00,,0832.3,5.00,0.00,30.1,28.8,00.0,39.0,31.9,18.0,0000.0,0008.01,0003.23,0002.78
2022-06-28 12:47:00,,0832.4,5.01,0.00,30.1,28.8,00.0,39.0,31.9,18.2,0000.0,0008.06,0003.24,0002.78
2022-06-28 12:48:00,,0832.3,5.00,0.00,30.1,28.8,00.0,39.0,31.9,18.2,0000.0,0007.85,0003.23,0002.78
2022-06-28 12:49:00,,0832.3,4.99,0.00,30.1,28.9,00.0,39.0,31.9,18.3,0000.0,0007.95,0003.25,0002.79
2022-06-28 12:50:00,,0832.3,5.00,0.00,30.1,28.9,00.0,39.0,31.9,18.2,0000.0,0007.02,0003.26,0002.80
2022-06-28 12:51:00,,0832.4,5.01,0.00,30.1,29.0,00.0,39.0,31.9,17.5,0000.0,0007.46,0003.27,0002.80
2022-06-28 12:52:00,,0832.3,4.99,0.00,30.1,29.0,00.0,39.0,31.9,17.1,0000.0,0007.86,0003.32,0002.79
2022-06-28 12:53:00,,0832.3,5.01,0.00,30.1,29.0,00.0,39.0,32.0,16.8,0000.0,0007.90,0003.35,0002.79
2022-06-28 12:54:00,,0832.3,5.00,0.00,30.1,29.0,00.0,39.0,32.0,17.1,0000.0,0007.88,0003.36,0002.80
2022-06-28 12:55:00,,0832.4,5.00,0.00,30.2,29.1,00.0,39.0,32.0,18.0,0000.0,0007.80,0003.35,0002.81
2022-06-28 12:56:00,,0832.4,5.00,0.00,30.2,29.1,00.0,39.0,32.0,18.6,0000.0,0007.81,0003.35,0002.83
2022-06-28 12:57:00,,0832.4,5.00,0.00,30.2,29.1,00.0,39.0,32.0,18.7,0000.0,0007.66,0003.38,0002.86
2022-06-28 12:58:00,,0832.4,5.00,0.00,30.2,29.1,00.0,39.0,32.0,18.7,0000.0,0007.61,0003.40,0002.89
2022-06-28 12:59:00,,0832.4,5.00,0.00,30.2,29.2,00.0,39.0,32.0,18.8,0000.0,0007.76,0003.44,0002.94
